Dewpoint
69 69 69 68 68 68 65 65 65 65 65 65 65 65 65 66 64 64 65 65 67 67 67 67 66 65 65 64 63 62 61 60 60
68 68 69 68 68 66 65 66 66 66 65 66 66 65 66 63 63 62 62 64 65 65 65 65 64 64 63 62 61 61 62 61 62
67 68 68 67 67 66 65 66 67 66 66 66 66 66 66 63 62 63 62 65 64 64 64 63 63 62 61 61 61 60 61 61 60
66 67 67 67 65 66 67 67 67 67 67 66 65 65 65 61 62 60 61 65 62 63 63 63 62 62 60 60 60 60 61 61 61
65 64 65 66 65 66 67 67 65 66 66 65 65 64 64 59 60 60 62 63 62 60 61 61 61 60 60 61 61 61 61 61 59
60 61 64 65 65 66 67 66 65 65 65 64 64 64 59 58 59 59 64 63 62 62 61 60 60 59 60 60 59 58 58 58 58
59 61 63 64 65 66 66 65 64 60 57 58 60 59 58 58 56 58 63 62 61 59 60 59 59 59 58 58 57 58 56 57 57
58 61 60 62 63 62 62 61 55 54 53 51 52 56 57 56 56 59 62 61 61 60 59 59 60 60 58 57 56 57 56 56 56
57 59 61 61 59 61 59 56 53 53 52 50 49 52 53 54 56 58 62 61 60 60 60 60 59 59 57 56 56 56 56 56 55
58 57 58 60 60 60 57 54 53 52 50 49 47 48 50 50 55 56 59 61 60 60 60 60 58 57 56 56 57 56 54 53 52
57 57 57 58 58 59 56 53 53 51 52 50 48 48 49 50 55 55 58 60 60 60 58 58 58 56 58 57 55 53 51 51 51
56 56 55 56 55 54 54 53 52 52 52 51 50 50 50 51 54 55 56 58 60 60 58 58 56 58 56 54 52 50 50 49 49
54 55 55 52 54 54 54 54 53 53 52 50 50 50 51 50 53 56 55 56 55 60 60 58 57 56 55 52 50 48 48 48 48
55 54 52 52 52 52 54 53 53 53 52 50 51 51 52 52 50 51 53 56 58 58 58 59 58 56 53 51 49 47 46 46 46
53 52 52 53 52 51 53 53 54 53 52 47 49 52 52 53 52 51 50 53 55 55 54 54 53 56 53 49 46 46 45 45 44
51 49 49 51 50 50 52 53 53 53 51 50 50 50 52 52 52 53 52 53 54 54 54 54 52 50 52 47 44 44 44 43 42
47 47 46 47 49 50 51 53 53 51 50 48 47 44 46 48 50 52 51 52 53 53 53 53 51 50 48 47 44 42 41 40 39
46 45 45 46 48 48 50 52 53 50 50 50 46 45 42 43 46 47 48 48 49 50 51 49 47 47 46 44 42 41 39 38 37
48 47 46 46 48 49 50 50 52 52 49 49 47 49 48 44 42 44 44 43 43 45 46 44 44 45 46 45 44 43 38 36 36
47 48 48 48 48 49 50 50 51 51 50 49 49 48 49 49 47 43 43 43 42 42 42 42 41 42 43 44 42 41 38 37 37
Lifted_Index
-1 -1 -0 0 1 1 2 2 2 2 2 2 2 2 1 1 1 1 1 1 1 1 1 1 2 2 3 4 4 5 5 6 6
-1 -0 -0 0 1 1 2 2 2 2 2 2 2 2 1 1 1 1 1 1 2 2 2 2 3 3 4 4 5 5 5 6 6
0 0 0 1 1 1 1 1 1 1 1 1 1 1 1 1 1 1 2 2 2 3 3 3 3 4 4 5 5 5 5 6 6
1 1 1 1 1 1 1 1 1 1 1 1 1 2 2 2 2 2 2 3 3 4 4 4 4 5 5 5 5 5 5 6 6
3 3 2 2 2 1 1 1 1 1 1 2 2 2 2 3 3 3 3 3 4 4 4 5 5 5 5 5 6 6 6 6 6
4 4 3 2 2 1 1 1 2 2 3 2 2 3 3 4 4 4 3 3 4 5 5 5 6 6 6 6 6 6 7 7 7
4 4 3 3 2 1 1 2 3 4 4 4 3 3 4 4 5 4 4 4 4 5 6 6 6 6 6 7 7 7 8 8 8
4 4 4 3 2 2 2 3 4 4 5 5 5 4 4 5 5 5 5 4 5 5 6 6 6 6 7 7 8 8 8 8 8
5 5 4 3 3 3 3 4 4 5 5 6 6 5 5 5 5 5 5 5 5 5 6 6 6 6 7 8 8 8 8 9 9
5 5 5 4 4 3 4 4 5 5 5 6 7 7 6 6 6 6 6 5 5 5 5 6 6 7 7 8 8 9 9 10 10
6 6 5 5 4 4 4 5 5 5 6 6 7 7 7 6 6 6 6 6 5 5 6 6 6 7 7 8 9 10 11 11 11
6 6 6 6 5 5 5 5 5 6 6 7 7 7 7 6 6 6 6 6 6 5 6 6 6 7 7 9 10 11 11 12 12
7 7 7 7 6 6 6 6 6 6 6 7 7 7 7 7 6 6 6 6 6 6 6 6 7 7 8 9 11 12 12 12 12
7 7 7 7 7 7 6 6 6 6 7 7 7 7 7 7 7 7 6 6 6 6 7 7 7 8 9 10 11 12 13 13 13
7 7 8 8 8 7 7 6 6 7 7 8 8 8 7 7 7 7 7 7 6 7 7 8 8 9 10 11 12 13 13 14 14
9 9 9 9 8 8 7 7 7 7 8 8 9 9 8 8 8 7 7 7 7 7 7 8 9 9 11 12 13 14 14 14 14
10 10 10 10 9 9 8 7 7 8 8 9 9 9 9 9 9 8 8 8 8 8 8 8 9 10 12 13 14 14 14 15 15
11 11 11 10 10 9 8 8 7 8 8 9 9 9 9 9 9 9 9 9 9 9 9 10 10 11 12 13 14 14 14 15 15
11 11 11 10 10 9 9 8 8 8 8 9 9 9 9 9 9 10 10 11 11 11 11 11 12 12 13 13 13 14 14 14 14
11 11 11 10 10 9 9 8 8 8 8 9 9 9 9 9 9 9 10 11 11 12 12 12 12 13 13 13 13 13 14 14 14